[[{"header":{"parameterUnit":"m.s-1","parameterCategory":1,"la1":30.2991,"la2":30.254,"lo1":-89.0895,"lo2":-89.0444,"dy":0.0017,"dx":0.0017,"nx":28,"ny":28,"refTime":"2023-08-14T21:00:00:Z","depth":0,"parameterNumber":2,"parameterNumberName":"U-component_of_WINDS"},"data":[0,0,0,0,0,0,0,0,0,0,0,0,0,0,0,0,0,0,0,0,0,0,0,0,0,0,0,0,0,0,0,0,0,0,0,0,0,0,0,0,0,0,0,0,0,0,0,0,0,0,0,0,0,0,0,0,0,0,2.6609,2.661,0,2.6683,2.6684,2.6685,2.6643,2.6641,2.6639,2.6637,2.6714,2.6718,2.6722,0,0,0,0,0,0,0,0,0,0,0,0,0,2.643,2.6433,2.6609,2.661,2.6611,2.6683,2.6684,2.6685,2.6644,2.6641,2.6639,2.6636,2.6713,2.6718,2.6723,0,0,0,0,0,0,0,0,0,0,0,0,0,2.6506,2.6434,2.6608,2.6599,2.6599,2.6683,2.6684,2.6685,2.6644,2.6641,2.6638,2.6635,2.6712,2.6717,2.6723,2.6821,0,0,2.6741,2.6744,0,0,0,0,0,0,0,0,2.6502,2.6513,2.6599,2.66,2.66,2.6651,2.6649,2.6731,2.6645,2.6627,2.6637,2.6634,2.6696,2.6703,2.6724,2.6825,2.6828,2.6742,2.6745,2.6748,2.675,0,0,0,0,0,0,0,2.6496,2.6509,2.6638,2.6601,2.6601,2.659,2.6597,2.6664,2.6678,2.6628,2.6626,2.6635,2.6695,2.6718,2.6725,2.6829,2.6742,2.6747,2.6751,2.6753,2.7012,2.7015,0,0,0,0,0,0,2.6492,2.6505,2.6636,2.664,2.6542,2.6596,2.6604,2.6637,2.6677,2.668,2.6637,2.6633,2.6709,2.6718,2.6728,2.6843,2.6748,2.6754,2.6757,2.7008,2.7012,2.7016,0,0,0,0,0,0,2.6488,2.6504,2.6633,2.6572,2.6587,2.6602,2.664,2.6641,2.6663,2.6684,2.6686,2.6658,2.6707,2.6719,2.6797,2.6845,2.6756,2.6762,2.7004,2.701,2.7014,2.7076,0,0,0,0,0,0,2.6483,2.6503,2.6541,2.6573,2.6591,2.6702,2.6643,2.6644,2.6673,2.6668,2.6704,2.6707,2.6706,2.6789,2.6803,2.6852,2.6766,2.7,2.7007,2.7013,2.707,2.7082,2.7093,0,0,0,0,0,2.6477,2.6556,2.6543,2.6559,2.6639,2.6705,2.6715,2.6712,2.6677,2.6715,2.6728,2.6706,2.6838,2.6797,2.6813,2.6864,2.6997,2.7005,2.7012,2.7064,2.708,2.7093,0,0,0,0,0,0,2.6531,2.656,2.6546,2.6638,2.6669,2.6698,2.6746,2.6729,2.6771,2.6764,2.6758,2.6767,2.6848,2.6864,2.6818,2.6959,2.6912,2.6923,2.6946,2.6961,2.6973,2.6967,2.6771,0,0,0,0,0,2.6553,2.6604,2.6628,2.6707,2.6723,2.6732,2.676,2.6755,2.6787,2.68,2.6819,2.685,2.6898,2.6931,2.6977,2.7072,2.7078,2.7114,2.7126,2.7135,2.7145,2.7194,2.7209,2.704,2.704,2.704,0,0,2.66,2.6623,2.6656,2.6718,2.6741,2.6793,2.6743,2.6801,2.684,2.6809,2.6883,2.6898,2.6933,2.7019,2.7058,2.7035,2.7193,2.7145,2.7152,2.7157,2.7203,2.7219,2.7233,2.7045,2.7045,2.7044,0,0,2.6712,2.6735,2.6802,2.6826,2.6861,2.6866,2.6882,2.6913,2.6921,2.6995,2.6972,2.7018,2.7102,2.7127,2.7151,2.7269,2.7249,2.7284,2.7345,2.7393,2.7406,2.7418,2.7458,2.7473,2.7293,2.7294,2.7294,0,2.6766,2.6845,2.6839,2.6898,2.6925,2.6898,2.6965,2.6988,2.7037,2.7056,2.7029,2.7132,2.7154,2.7244,2.7273,2.7294,2.7311,2.728,2.7405,2.7417,2.7427,2.7466,2.7481,2.7298,2.7297,2.7297,2.7296,0,2.6908,2.6963,2.7012,2.7059,2.7091,2.7154,2.7157,2.7191,2.7182,2.7189,2.7264,2.7289,2.7338,2.7359,2.7352,2.7448,2.7432,2.7405,2.7357,2.7448,2.7483,2.7498,2.7303,2.7302,2.7301,2.73,0,0,2.7058,2.7098,2.7116,2.7136,2.7171,2.7213,2.7274,2.7321,2.7349,2.7383,2.7432,2.7503,2.7477,2.7504,2.7499,2.7541,2.763,2.7509,2.7509,2.7529,2.7735,2.7754,2.7771,2.7617,2.762,2.7622,2.7731,0,2.7171,2.7277,2.7272,2.7371,2.7419,2.7393,2.7445,2.7472,2.748,2.7522,2.7531,2.758,2.7544,2.7559,2.76,2.7611,2.7671,2.7603,2.7662,2.7665,2.7654,2.779,2.7812,2.7914,2.7746,2.7748,2.775,0,2.7318,2.7355,2.7458,2.7484,2.7504,2.7551,2.7592,2.7633,2.7663,2.7665,2.7694,2.7681,2.7741,2.7691,2.7773,2.7727,2.775,2.7759,2.7763,2.7768,2.7712,2.7798,2.7946,2.7961,2.7772,2.777,2.7769,0,2.7414,2.749,2.7561,2.7579,2.7611,2.7644,2.7659,2.7685,2.7713,2.7749,2.7766,2.7809,2.7832,2.7865,2.7864,2.7828,2.7946,2.7897,2.7949,2.7949,2.7975,2.7973,2.8128,2.7992,2.7992,2.7991,2.7991,0,2.7541,2.7605,2.7604,2.7648,2.7718,2.7711,2.778,2.7791,2.7814,2.7859,2.7839,2.7881,2.7877,2.7919,2.7918,2.7985,2.7996,2.7999,2.7998,2.8,2.7999,2.8015,2.8008,2.7996,2.7995,2.7994,2.7993,0,2.7661,2.7664,2.7739,2.7762,2.7769,2.7819,2.7839,2.7879,2.7884,2.7941,2.7953,2.7962,2.801,2.8011,2.8068,2.8067,2.8147,2.8139,2.8137,2.8135,2.8186,2.8181,2.8356,2.8378,2.8229,2.823,2.8232,0,2.7741,2.7789,2.7817,2.7845,2.7861,2.7907,2.7934,2.7928,2.7957,2.7992,2.8028,2.8074,2.8111,2.8189,2.82,2.8242,2.8233,2.8292,2.824,2.824,2.8232,2.8229,2.8233,2.8302,2.8304,2.8305,2.8306,0,2.7883,2.7881,2.7921,2.7961,2.7994,2.8025,2.8054,2.8078,2.8075,2.8109,2.8157,2.8185,2.8241,2.8286,2.8326,2.8341,2.8323,2.8322,2.8336,2.8339,2.8335,2.8336,2.8164,2.8318,2.8317,2.8316,2.8315,2.8315,2.7985,2.8025,2.805,2.8094,2.8115,2.8142,2.818,2.8189,2.8229,2.8273,2.8267,2.832,2.8346,2.8397,2.8415,2.8456,2.8436,2.8457,2.8462,2.8467,2.8471,2.8329,2.8464,2.8463,2.8463,2.8463,2.8463,0,2.8124,2.8137,2.8178,2.8218,2.8253,2.8232,2.8262,2.8292,2.8339,2.8364,2.8399,2.8453,2.8497,2.851,2.8551,2.8581,2.8574,2.8592,2.859,2.8593,2.8488,2.8471,2.8597,2.8597,2.8597,2.8597,2.8597,2.8597,2.82,2.8266,2.8267,2.8342,2.8356,2.8407,2.8426,2.845,2.8469,2.853,2.8565,2.8573,2.8593,2.8635,2.8673,2.8676,2.8691,2.8713,2.8712,2.8614,2.8601,2.8588,2.8572,2.8717,2.8717,2.8813,2.8814,2.8815]},{"header":{"parameterUnit":"m.s-1","parameterCategory":1,"la1":30.2991,"la2":30.254,"lo1":-89.0895,"lo2":-89.0444,"dy":0.0017,"dx":0.0017,"nx":28,"ny":28,"refTime":"2023-08-14T21:00:00:Z","depth":0,"parameterNumber":3,"parameterNumberName":"V-component_of_WINDS"},"data":[0,0,0,0,0,0,0,0,0,0,0,0,0,0,0,0,0,0,0,0,0,0,0,0,0,0,0,0,0,0,0,0,0,0,0,0,0,0,0,0,0,0,0,0,0,0,0,0,0,0,0,0,0,0,0,0,0,0,6.0029,6.003,0,6.0107,6.0107,6.0108,6.0058,6.0056,6.0054,6.0051,6.0123,6.0127,6.0131,0,0,0,0,0,0,0,0,0,0,0,0,0,5.983,5.9834,6.0029,6.003,6.0031,6.0106,6.0107,6.0109,6.0059,6.0056,6.0053,6.005,6.0122,6.0126,6.0131,0,0,0,0,0,0,0,0,0,0,0,0,0,5.9912,5.9835,6.0029,6.0015,6.0015,6.0106,6.0108,6.0109,6.0059,6.0056,6.0052,6.0049,6.012,6.0126,6.0132,6.0238,0,0,6.015,6.0153,0,0,0,0,0,0,0,0,5.9908,5.992,6.0016,6.0017,6.0016,6.0069,6.0063,6.0152,6.006,6.0042,6.0051,6.0047,6.0107,6.0114,6.0136,6.0242,6.0245,6.0151,6.0155,6.0157,6.0159,0,0,0,0,0,0,0,5.9902,5.9916,6.0059,6.0018,6.0018,6.0003,6.0011,6.008,6.0093,6.0043,6.004,6.005,6.0107,6.013,6.0137,6.0246,6.0151,6.0156,6.016,6.0162,6.044,6.0444,0,0,0,0,0,0,5.9899,5.9912,6.0057,6.0062,5.9953,6.0009,6.0018,6.0056,6.0092,6.0094,6.0053,6.0048,6.0122,6.013,6.014,6.0265,6.0157,6.0163,6.0166,6.0437,6.0441,6.0445,0,0,0,0,0,0,5.9895,5.9912,6.0054,5.9986,6.0003,6.0016,6.0059,6.0059,6.0083,6.01,6.0101,6.0076,6.0119,6.0131,6.0214,6.0267,6.0166,6.0171,6.0432,6.0438,6.0443,6.0518,0,0,0,0,0,0,5.9889,5.9911,5.9954,5.9987,6.0007,6.013,6.0062,6.0063,6.0094,6.0088,6.0121,6.0123,6.0118,6.0206,6.022,6.0274,6.0176,6.0427,6.0435,6.0441,6.0511,6.0526,6.0539,0,0,0,0,0,5.9882,5.997,5.9956,5.9974,6.0061,6.0133,6.0144,6.0138,6.0099,6.014,6.0151,6.0122,6.026,6.0215,6.0231,6.0287,6.0424,6.0433,6.0441,6.0505,6.0523,6.0538,0,0,0,0,0,0,5.9939,5.9974,5.9959,6.0061,6.0095,6.0125,6.0177,6.0157,6.0201,6.0193,6.0181,6.0189,6.0276,6.0289,6.0239,6.0391,6.0335,6.0347,6.0378,6.0396,6.0409,6.0403,6.0181,0,0,0,0,0,5.9965,6.0023,6.0049,6.0137,6.0155,6.0163,6.0194,6.0187,6.022,6.0234,6.025,6.0281,6.0331,6.0364,6.0411,6.0513,6.0518,6.056,6.0573,6.0584,6.0594,6.0647,6.0665,6.0473,6.0473,6.0473,0,0,6.0016,6.0042,6.0079,6.0149,6.0174,6.0232,6.0175,6.0239,6.0281,6.0242,6.0322,6.0336,6.0369,6.0462,6.0504,6.0476,6.0649,6.0595,6.0604,6.0608,6.0658,6.0676,6.0692,6.0479,6.0478,6.0477,0,0,6.0139,6.0166,6.0241,6.0268,6.0308,6.0313,6.0331,6.0364,6.0372,6.0453,6.0424,6.0473,6.056,6.0585,6.0609,6.0741,6.0715,6.0757,6.0827,6.0879,6.0894,6.0907,6.0953,6.097,6.0767,6.0767,6.0767,0,6.0196,6.0286,6.0281,6.0348,6.0379,6.0349,6.0423,6.0449,6.0501,6.0521,6.049,6.0599,6.0619,6.0716,6.0749,6.077,6.0788,6.0752,6.0893,6.0906,6.0918,6.0962,6.0979,6.0772,6.0771,6.0771,6.077,0,6.0354,6.0416,6.0472,6.0526,6.0563,6.0633,6.0636,6.0673,6.0663,6.067,6.0751,6.0776,6.0826,6.0849,6.0839,6.0945,6.0926,6.0895,6.0838,6.0942,6.0982,6.0998,6.0778,6.0777,6.0775,6.0774,0,0,6.0514,6.0566,6.0586,6.061,6.0651,6.0698,6.0766,6.0818,6.0849,6.0886,6.094,6.1015,6.0986,6.1013,6.1005,6.1051,6.1152,6.1013,6.1014,6.1037,6.1268,6.1291,6.131,6.1136,6.114,6.1142,6.1265,0,6.0638,6.076,6.0758,6.0869,6.0925,6.0897,6.0956,6.0986,6.0995,6.1042,6.105,6.1102,6.1061,6.1077,6.1121,6.1131,6.1198,6.1122,6.1184,6.1187,6.1175,6.1331,6.1356,6.147,6.1281,6.1283,6.1285,0,6.0799,6.0844,6.0962,6.0995,6.1018,6.1072,6.1119,6.1165,6.1198,6.12,6.1232,6.1216,6.1282,6.1225,6.1314,6.1263,6.1288,6.1296,6.1301,6.1304,6.1241,6.1338,6.1507,6.1524,6.131,6.1308,6.1307,0,6.0902,6.0992,6.1074,6.1095,6.1136,6.1174,6.1192,6.1222,6.1253,6.1293,6.1313,6.136,6.1385,6.142,6.1417,6.1376,6.1506,6.145,6.1508,6.1508,6.1535,6.1533,6.1709,6.1555,6.1555,6.1554,6.1554,0,6.104,6.1113,6.112,6.1171,6.125,6.1246,6.1324,6.1338,6.1365,6.1415,6.1393,6.144,6.1434,6.148,6.1478,6.1551,6.1563,6.1565,6.1563,6.1566,6.1566,6.1581,6.1572,6.1559,6.1558,6.1557,6.1556,0,6.1168,6.1176,6.1263,6.1296,6.1306,6.1363,6.1389,6.1435,6.1442,6.1506,6.152,6.153,6.1584,6.1585,6.1645,6.1644,6.1732,6.1722,6.1722,6.1719,6.1777,6.1771,6.1967,6.1992,6.1823,6.1825,6.1826,0,6.1254,6.131,6.1349,6.1383,6.1404,6.1458,6.149,6.1488,6.1522,6.1563,6.1604,6.1656,6.1697,6.1783,6.1794,6.184,6.183,6.1896,6.1836,6.1837,6.1829,6.1825,6.1829,6.1906,6.1908,6.191,6.1911,0,6.1407,6.1408,6.1457,6.1508,6.1548,6.1587,6.1623,6.1651,6.1652,6.1691,6.1747,6.1779,6.1842,6.1893,6.1937,6.1953,6.1931,6.193,6.1946,6.1948,6.1945,6.1946,6.1752,6.1925,6.1924,6.1923,6.1922,6.1921,6.1515,6.1563,6.1598,6.1653,6.168,6.1715,6.1759,6.1773,6.1821,6.1873,6.1868,6.193,6.1959,6.2017,6.2037,6.2083,6.206,6.2083,6.2088,6.2093,6.2099,6.194,6.2091,6.2091,6.209,6.209,6.209,0,6.1664,6.1686,6.1737,6.1789,6.1832,6.1812,6.185,6.1886,6.1942,6.1973,6.2015,6.2078,6.2127,6.2143,6.219,6.2224,6.2215,6.2236,6.2232,6.2236,6.2118,6.2099,6.2242,6.2242,6.2242,6.2242,6.2242,6.2242,6.1747,6.1826,6.1832,6.1924,6.1944,6.2006,6.203,6.206,6.2085,6.2158,6.22,6.221,6.2235,6.2283,6.2327,6.233,6.2347,6.2372,6.2371,6.226,6.2244,6.223,6.2212,6.2376,6.2376,6.2484,6.2485,6.2486]}]]